Blue Ridge Observed Data For Previous 48 Hours

Caption
Day and Hour Reservoir Elevation (behind dam)* Tailwater Elevation (below dam)* Average Hourly Discharge*
3/18/2019 2 AM EDT 1,680.49 1,545.05 2,574
3/18/2019 3 AM EDT 1,680.43 1,545.05 2,574
3/18/2019 4 AM EDT 1,680.42 1,545.04 2,577
3/18/2019 5 AM EDT 1,680.37 1,545.05 2,574
3/18/2019 6 AM EDT 1,680.37 1,545.05 2,577
3/18/2019 7 AM EDT 1,680.32 1,545.05 2,578
3/18/2019 8 AM EDT 1,680.30 1,545.05 2,583
3/18/2019 9 AM EDT 1,680.23 1,545.04 2,575
3/18/2019 10 AM EDT 1,680.19 1,545.05 2,579
3/18/2019 11 AM EDT 1,680.16 1,545.04 2,577
3/18/2019 12 PM EDT 1,680.12 1,545.05 2,582
3/18/2019 1 PM EDT 1,680.08 1,545.04 2,579
3/18/2019 2 PM EDT 1,680.04 1,544.12 2,313
3/18/2019 3 PM EDT 1,680.03 1,543.85 1,934
3/18/2019 4 PM EDT 1,680.01 1,543.85 1,938
3/18/2019 5 PM EDT 1,680.01 1,543.86 1,936
3/18/2019 6 PM EDT 1,679.98 1,543.85 1,941
3/18/2019 7 PM EDT 1,679.98 1,543.85 1,937
3/18/2019 8 PM EDT 1,679.95 1,543.86 1,942
3/18/2019 9 PM EDT 1,680.00 1,543.85 1,934
3/18/2019 10 PM EDT 1,679.97 1,543.85 1,937
3/18/2019 11 PM EDT 1,679.97 1,543.85 1,933
3/19/2019 12 AM EDT 1,679.94 1,543.85 1,937
3/19/2019 1 AM EDT 1,679.93 1,543.85 1,937
3/19/2019 2 AM EDT 1,679.90 1,543.85 1,942
3/19/2019 3 AM EDT 1,679.89 1,543.86 1,939
3/19/2019 4 AM EDT 1,679.87 1,543.86 1,944
3/19/2019 5 AM EDT 1,679.87 1,543.86 1,939
3/19/2019 6 AM EDT 1,679.83 1,543.86 1,940
3/19/2019 7 AM EDT 1,679.83 1,543.86 1,945
3/19/2019 8 AM EDT 1,679.79 1,543.86 1,942
3/19/2019 9 AM EDT 1,679.76 1,543.86 1,943
3/19/2019 10 AM EDT 1,679.73 1,543.86 1,940
3/19/2019 11 AM EDT 1,679.65 1,543.86 1,942
3/19/2019 12 PM EDT 1,679.64 1,543.85 1,939
3/19/2019 1 PM EDT 1,679.66 1,543.86 1,946
3/19/2019 2 PM EDT 1,679.63 1,543.85 1,941
3/19/2019 3 PM EDT 1,679.57 1,543.85 1,944
3/19/2019 4 PM EDT 1,679.58 1,543.85 1,939
3/19/2019 5 PM EDT 1,679.58 1,543.85 1,941
3/19/2019 6 PM EDT 1,679.59 1,543.85 1,937
3/19/2019 7 PM EDT 1,679.58 1,543.84 1,935
3/19/2019 8 PM EDT 1,679.57 1,543.85 1,933
3/19/2019 9 PM EDT 1,679.57 1,543.85 1,934
3/19/2019 10 PM EDT 1,679.55 1,543.84 1,929
3/19/2019 11 PM EDT 1,679.53 1,543.85 1,935
3/20/2019 12 AM EDT 1,679.49 1,543.86 1,934
3/20/2019 1 AM EDT 1,679.45 1,543.85 1,938
3/20/2019 2 AM EDT 1,679.46 1,543.85 1,938
3/20/2019 3 AM EDT 1,679.43 1,543.85 1,940
3/20/2019 4 AM EDT 1,679.42 1,543.85 1,938
3/20/2019 5 AM EDT 1,679.42 1,543.85 1,942
3/20/2019 6 AM EDT 1,679.41 1,543.85 1,936
3/20/2019 7 AM EDT 1,679.39 1,543.85 1,939
3/20/2019 8 AM EDT 1,679.37 1,543.86 1,936
3/20/2019 9 AM EDT 1,679.36 1,543.85 1,939

Elevations are in feet above sea level. Discharges are in cubic feet per second and are reported at the end of the hour.